Welcome to the New NWS' Forecast!
Most changes are behind the scenes, but click here for differences you might notice.
Latest weather observations around

Joplin, Joplin Regional Airport (KJLN)

Using International System of Units (Switch to English Units)
Date/ Time (CDT) Wind (kph) Vis. (km) Weather Sky Cond. Temp (°C) Rel. Humidity Wind Chill (°C) Heat Index (°C) Pressure Precip. (cm)
Air Dwpt 6 hour Altimeter (hPa) Sea level (hPa) 1 hr 3 hr 6 hr
Max Min
Oct 22 21:53 S 5 12.87 Clear CLR 10 8     89%     1023 1022.8      
Oct 22 20:53 Calm 16.09 Clear CLR 11 9     86%     1022.4 1022.2      
Oct 22 19:53 Calm 16.09 Clear CLR 12 9     86%     1022 1022.2      
Oct 22 18:53 Calm 16.09 Clear CLR 14 8     67%     1021.7 1021.5      
Oct 22 17:53 SSW 8 16.09 Clear CLR 17 9     60%     1021 1020.8      
Oct 22 16:53 SSW 11 16.09 Clear CLR 19 8     49%     1021 1020.6      
Oct 22 15:53 WSW 13 16.09 Clear CLR 20 8     45%     1021 1020.7      
Oct 22 14:53 SSW 13 16.09 Mostly Clear FEW100 19 8     49%     1021 1020.6      
Oct 22 13:53 SW 13 16.09 Mostly Clear FEW100 18 8     50%     1021.3 1021.1      
Oct 22 12:53 SW 13 16.09 Cloudy OVC100 18 8     52%     1022.4 1022.1      
Oct 22 11:53 SW 21 16.09 Clear CLR 17 7     53%     1022.7 1022.4      
Oct 22 10:53 SW 21 16.09 Clear   16 6     53%     1022.7 1022.5      
Oct 22 09:53 SSW 17 16.09 Partly Cloudy SCT100 13 6     64%     1022.7 1022.6      
Oct 22 08:53 SSW 15 16.09 Mostly Clear FEW110 11 6     71%     1022.7 1022.7      
Oct 22 07:53 S 13 16.09 Clear CLR 7 4     82% 4   1022.4 1022.5      
Oct 22 06:53 S 11 16.09 Clear CLR 6 3     82% 4   1022.4 1022.4      
Oct 22 05:53 S 8 16.09 Clear CLR 7 3     76% 6   1022 1022      
Oct 22 04:53 S 11 16.09 Clear CLR 7 3     79% 4   1021.7 1021.4      
Oct 22 03:53 S 15 16.09 Clear CLR 8 4     76% 5   1021.7 1021.6      
Oct 22 02:53 S 13 16.09 Clear CLR 7 3     74% 5   1022 1021.9      
Oct 22 01:53 S 11 16.09 Clear CLR 8 3     71% 6   1022 1021.7      
Oct 22 00:53 S 15 16.09 Clear CLR 8 3     68% 6   1022 1021.8      
Oct 21 23:53 S 15 16.09 Clear CLR 9 4     71% 7   1022.4 1022.4      
Oct 21 22:53 S 15 16.09 Clear CLR 9 4     71% 7   1022.7 1022.5      
Oct 21 21:53 S 13 16.09 Clear CLR 8 4     74% 6   1022.7 1022.7      
Oct 21 20:53 SSE 8 12.87 Clear CLR 9 4     69% 8   1022.4 1022.5      
Oct 21 19:53 S 8 16.09 Clear CLR 11 4     63%     1023 1023.5      
Oct 21 18:53 SW 8 16.09 Clear CLR 13 4     55%     1023.4 1023.5      
Oct 21 17:53 SSW 9 16.09 Clear CLR 16 3     42%     1023.4 1023.5      
Oct 21 16:53 S 11 16.09 Clear CLR 17 2     37%     1023.7 1023.8      
Oct 21 15:53 S 13 16.09 Clear CLR 17 2     37%     1024.4 1024.5      
Oct 21 14:53 WSW 11 16.09 Clear CLR 17 1     35%     1025.1 1025.2      
Oct 21 13:53 W 11 16.09 Clear CLR 16 2     38%     1026.1 1026.1      
Oct 21 12:53 SSE 9 16.09 Clear CLR 15 1     37%     1027.1 1027.2      
Oct 21 11:53 SSE 9 16.09 Clear CLR 13 2     47%     1028.5 1028.3      
Oct 21 10:53 ESE 9 16.09 Clear CLR 11 1     52%     1028.8 1028.8      
Oct 21 09:53 SE 17 16.09 Clear CLR 8 1     58% 6   1029.1 1029.3      
Oct 21 08:53 Calm 16.09 Clear CLR 5 1     73%     1029.8 1030      
Oct 21 07:53 Calm 16.09 Clear CLR 1 -1     92%     1029.1 1029.3      
Oct 21 06:53 Calm 16.09 Clear CLR 2 -1     82%     1029.1 1029.3      
Oct 21 05:53 Calm 16.09 Clear CLR 2 -1     82%     1029.1 1029.2      
Oct 21 04:53 E 8 16.09 Clear CLR 2 0     85% 0   1029.1 1029      
Oct 21 03:53 Calm 16.09 Clear CLR 2 0     88%     1029.5 1029.3      
Oct 21 02:53 NE 5 16.09 Clear CLR 2 1     89% 1   1029.1 1029.2      
Oct 21 01:53 Calm 16.09 Clear CLR 6 0     67%     1029.1 1028.9      
Oct 21 00:53 NE 9 16.09 Clear CLR 6 0     65% 4   1028.8 1028.5      
Oct 20 23:53 NE 8 16.09 Clear CLR 8 1     60% 7   1028.8 1028.5      
Oct 20 22:53 NNE 8 16.09 Clear CLR 8 1     58% 7   1028.5 1028.2      
Oct 20 21:53 NNE 9 16.09 Clear CLR 9 1     58% 7   1027.4 1027.5      
Oct 20 20:53 N 11 16.09 Clear CLR 10 1     54%     1026.8 1026.8      
Oct 20 19:53 N 13 16.09 Clear CLR 11 1     52%     1026.4 1026.6      
Oct 20 18:53 N 13 16.09 Clear CLR 13 1     45%     1025.7 1025.5      
Oct 20 17:53 N 18 16.09 Clear CLR 17 1     33%     1025.1 1024.8      
Oct 20 16:53 N 21 16.09 Clear CLR 19 2     32%     1024.7 1024.5      
Oct 20 15:53   16.09 Clear CLR 19 2     32%     1024.7 1024.5      
Oct 20 14:53 N 22 16.09 Clear CLR 20 4     35%     1025.1 1024.5      
Oct 20 13:53   16.09 Clear CLR 19 3     33%     1025.1 1024.7      
Oct 20 12:53 NW 21 16.09 Clear CLR 19 4     38%     1026.1 1025.5      
Oct 20 11:53 9 16.09 Clear CLR 18 6     46%     1026.4 1026.1      
Oct 20 10:53 NW 9 16.09 Clear CLR 15 9     67%     1026.4 1026.2      
Oct 20 09:53 NW 9 16.09 Clear CLR 12 8     80%     1026.1 1026      
Oct 20 08:53 Calm 14.48 Clear CLR 9 8     96%     1025.4 1025.2      
Oct 20 08:28 Calm 6.44 Fog/Mist CLR 7 7     100%     1025.1        
Oct 20 07:53 Calm 0.4 Fog VV001 6 6     100%     1024.4 1024.4      
Oct 20 06:53 Calm 0.4 Fog VV002 7 7     100%     1024.1 1024      
Oct 20 05:53 W 5 0.4 Fog VV001 8 8     97% 8   1023.4 1023.3      
Oct 20 04:53 WNW 5 0.4 Fog VV001 8 8     100% 7   1022.7 1022.6      
Oct 20 04:06 Calm 0.4 Fog VV001 10 9     96%     1022.4        
Oct 20 03:53 Calm 0.8 Fog BKN003 11 11     100%     1022.4 1022.2      
Oct 20 03:49 Calm 1.21 Fog/Mist VV003 11 11     100%     1022.4        
Oct 20 03:35 NNW 5 2.82 Fog/Mist SCT004 11 10     96%     1022.7        
Oct 20 03:28 NNW 8 6.44 Fog/Mist SCT004 11 11     97%     1022.7        
Oct 20 03:17 WNW 8 9.66 Fog/Mist BKN005 11 11     100%     1022.4        
Oct 20 02:53 WNW 9 9.66 Fog/Mist OVC004 12 12     97%     1022.7 1022.4      
Oct 20 02:49 WNW 11 9.66 Fog/Mist OVC004 12 12     100%     1022.7        
Oct 20 02:33 WNW 11 4.83 Fog/Mist OVC002 12 12     100%     1022.7        
Oct 20 02:14 WNW 11 1.61 Fog/Mist VV002 12 12     100%     1022.7        
Oct 20 01:53 WNW 13 0.8 Fog VV002 12 12     100%     1022 1022      
Oct 20 00:53 WSW 11 1.21 Fog/Mist VV002 12 12     100%     1021.7 1021.4      
Oct 20 00:41 WSW 13 1.21 Fog/Mist VV002 12 12     100%     1021.3        
Oct 19 23:53 WSW 9 1.61 Fog/Mist VV002 12 12     100%     1021 1020.9      
Oct 19 23:43 WSW 11 1.21 Fog/Mist VV002 12 12     100%     1021        
Oct 19 23:04 WSW 13 2.82 Fog/Mist OVC002 12 12     100%     1020.7        
Oct 19 22:53 SW 11 3.22 Fog/Mist OVC002 12 12     100%     1020.7 1020.6      
Oct 19 21:53 SW 11 9.66 Fog/Mist OVC003 12 12     97%     1020.7 1020.6      
Oct 19 20:53 SW 11 12.87 Cloudy OVC003 12 12     97%     1020.7 1020.7      
Oct 19 20:24 SW 9 14.48 Cloudy OVC003 12 11     93%     1020.7        
Oct 19 19:53 SW 15 16.09 Cloudy BKN006 OVC014 12 11     93%     1020.7 1020.5      
Oct 19 18:53 SW 13 6.44 Fog/Mist BKN005 OVC016 12 11     93%     1020.3 1020.1     0
Oct 19 17:53 SW 11 16.09 Cloudy OVC007 13 11     89%     1019.7 1019.5      
Oct 19 17:09 SW 15 16.09 Cloudy OVC009 13 11     89%     1020        
Oct 19 16:53 SW 15 16.09 Cloudy OVC010 13 11     86%     1019.7 1019.4      
Oct 19 15:53 SW 18 16.09 Cloudy OVC008 13 11     84%     1020 1019.7   0  
Oct 19 15:45 SW 15 16.09 Cloudy OVC008 13 11     87%     1019.7        
Oct 19 14:53 SW 15 16.09 Cloudy OVC010 13 11     87%     1020.3 1019.9 0    
Oct 19 14:25 SSW 18 16.09 Cloudy OVC010 13 11     89%     1020.7        
Oct 19 13:53 SW 18 16.09 Cloudy OVC008 12 11     90%     1021.3 1021.3      
Oct 19 12:53   16.09 Cloudy OVC008 12 10     89%     1022 1021.8     0
Oct 19 12:19 SSW 22 16.09 Cloudy OVC009 12 10     89%     1022.4        
Oct 19 11:53 SSW 21 16.09 Cloudy OVC011 12 10     89%     1023 1022.8      
Oct 19 10:53 SSW 15 16.09 Cloudy BKN010 OVC020 11 10     93%     1023.4 1023.3 0    
Oct 19 10:38 SSW 18 16.09 Cloudy BKN010 OVC020 11 10     93%     1023.7   0    
Oct 19 09:53 S 18 16.09 Cloudy BKN007 BKN023 OVC032 11 10     96%     1024.1 1023.8 0 0  
Oct 19 08:53 S 11 16.09 Light Rain BKN006 BKN017 OVC030 10 9     96%     1024.4 1024.3 0    
Oct 19 08:51 S 13 16.09 Light Rain BKN004 BKN017 OVC030 10 9     94%     1024.4   0    
Oct 19 08:31 SSW 11 16.09 Light Rain BKN011 OVC033 10 9     96%     1024.4   0    
Oct 19 07:53 SSW 17 9.66 Light Rain and Fog/Mist BKN009 OVC016 10 9     96%     1024.4 1024.5 0    
Oct 19 07:46 SSW 11 9.66 Light Rain and Fog/Mist BKN009 OVC016 10 9     96%     1024.7   0    
Oct 19 07:17 SSW 17 6.44 Rain and Fog/Mist BKN014 BKN031 OVC110 10 9     96%     1024.4   0    
Oct 19 06:53 SSW 11 6.44 Rain and Fog/Mist FEW019 BKN049 OVC110 10 9     96%     1024.7 1024.7 0   0
Oct 19 05:53 S 9 16.09 Light Rain OVC040 11 9     89%     1024.4 1024.1 0    
Oct 19 04:53 S 8 16.09 Mostly Cloudy SCT075 BKN120 11 9     89%     1024.4 1024 0    
Oct 19 03:53 S 9 16.09 Light Rain FEW075 11 9     89%     1024.7 1024.4 0 0  
Oct 19 02:53 S 11 16.09 Clear   12 7     71%     1025.4 1024.9      
Oct 19 01:53 S 13 16.09 Cloudy OVC060 12 6     66%     1025.1 1024.9      
Oct 19 00:53 S 13 16.09 Cloudy FEW060 BKN085 OVC110 13 6     62%     1025.7 1025.4     0
Oct 18 23:53 S 13 16.09 Cloudy BKN060 OVC080 13 6     62%     1026.4 1026.2      
Oct 18 22:53 SE 9 16.09 Mostly Cloudy FEW080 BKN120 13 6     62%     1027.1 1026.7      
Oct 18 21:53 SSE 8 16.09 Partly Cloudy SCT120 13 6     62%     1027.8 1027.5 0 0  
Oct 18 20:53 SSE 8 16.09 Clear CLR 12 7     74%     1028.1 1028.2      
Oct 18 19:53 E 5 16.09 Clear CLR 11 7     77%     1028.1 1028      
Oct 18 18:53 S 8 16.09 Clear CLR 13 5     57%     1028.1 1028.1      
Oct 18 17:53 SE 5 16.09 Clear CLR 15 3     45%     1028.5 1028.5      
Oct 18 16:53 SSE 8 16.09 Clear CLR 16 4     46%     1028.8 1028.7      
Oct 18 15:53 SE 9 16.09 Clear CLR 17 4     41%     1029.1 1029      
Oct 18 14:53 9 16.09 Clear CLR 17 1     35%     1030.1 1029.9      
Oct 18 13:53 SSE 11 14.48 Clear CLR 16 3     42%     1030.8 1030.4      
Oct 18 12:53 SE 13 16.09 Clear CLR 17 1     34%     1032.2 1031.8      
Oct 18 11:53 E 11 16.09 Partly Cloudy SCT250 17 2     36%     1032.9 1032.8      
Oct 18 10:53 ESE 13 16.09 Clear CLR 17 3     40%     1033.2 1033.1      
Oct 18 09:53 SE 15 16.09 Clear CLR 14 5     53%     1033.5 1033.4      
Oct 18 08:53 ESE 11 16.09 Clear CLR 9 5     74% 8   1033.2 1033.2      
Oct 18 07:53 SE 9 16.09 Mostly Cloudy BKN250 8 4     74% 7   1032.9 1032.8      
Oct 18 06:53 ESE 9 16.09 Clear CLR 9 4     73% 7   1032.5 1032.5      
Oct 18 05:53 Calm 16.09 Clear CLR 7 5     86%     1032.5 1032.2      
Oct 18 04:53 ENE 5 16.09 Clear CLR 8 5     80% 8   1031.8 1031.6      
Oct 18 03:53 E 8 16.09 Clear CLR 9 6     80% 8   1031.8 1031.4      
Oct 18 02:53 E 8 16.09 Clear CLR 10 6     74%     1031.8 1031.5      
May 15 06:53 NNW 9 16.09 Clear CLR 16 16     97%     1013.2 1012.2     2
May 14 05:53 S 17 16.09 Clear CLR 21 17     81%     1014.2 1013.1      
May 13 10:53   16.09 Clear CLR 27 20     67%   28 1016.9 1015.8      
May 12 18:53 S 28 16.09 Clear CLR 27 18     58%   28 1012.9 1011.8      
May 12 08:53 S 18 16.09 Clear CLR 23 18     71%   24 1014.6 1013.5      
May 12 00:53 SSE 13 16.09 Clear CLR 21 16     73%     1012.2 1011.3      
Jun 12 01:53 S 15 16.09 Clear CLR 23 18     76%   23 1013.2 1011.9      
Jun 11 21:53 S 17 16.09 Clear CLR 26 18     62%   26 1012.5 1011.3      
Jun 11 11:53   16.09 Partly Cloudy SCT032 29 22     65%   32 1013.9 1012.6      
Jun 11 10:53   16.09 Clear CLR 28 21     65%   31 1013.6 1012.1      
Jun 10 19:53 S 24 16.09 Clear CLR 27 19     62%   29 1010.2 1008.9      
Jun 10 17:53   16.09 Clear CLR 29 20     57%   31 1009.8 1008.8      
Jun 10 11:53   16.09 Clear CLR 28 19     60%   29 1012.5 1011.3      
Jun 09 14:53 S 21 16.09 Partly Cloudy SCT055 27 16     52%   27 1012.9 1012.1      
Jun 09 00:53 SE 5 16.09 Clear CLR 16 13     83%     1013.9 1013      
Jun 08 23:53 S 5 16.09 Clear   17 13     80%     1013.9 1013.1      
Jun 08 12:53 WNW 8 16.09 Clear CLR 26 12     41%   26 1017.6 1016.8      
Jun 08 06:53 Calm 16.09 Clear CLR 13 12     90%     1018 1017.4      
Jun 07 21:53 Calm 16.09 Clear CLR 18 13     75%     1017.6 1016.7      
Jun 07 14:53 NNE 15 16.09 Clear CLR 27 11     37%   27 1018 1017      
Jun 07 11:53 E 15 16.09 Mostly Clear FEW060 26 9     35%   26 1019 1018.2      
Jun 06 11:53 N 8 16.09 Clear CLR 28 18     55%   29 1014.6 1013.4      
Jun 06 10:53 N 8 16.09 Clear CLR 26 19     65%   26 1014.6 1013.3      
Notice The following observation data may not be complete
Jun 06 04:02   3.22 Fog/Mist CLR          %              
Jun 05 19:53 Calm 16.09 Mostly Cloudy BKN075 29 21     63%   31 1010.2 1008.9